This is the latest recevied weather packets stored in our database for station/object OE5HCE. If no packets are shown the sender has not sent any weather packets the latest 10 day(s).
| Time | Temp. | Humidity | Pressure | Rain* | Wind** | Luminosity | Snow |
|---|---|---|---|---|---|---|---|
| 1777559440 | 15.56° C | 32% | 1029.4 hPa | 0 mm | - | 550 W/m² | - |
| 1777558539 | 15.56° C | 31% | 1029.5 hPa | 0 mm | - | 587 W/m² | - |
| 1777557639 | 15° C | 33% | 1029.6 hPa | 0 mm | - | 621 W/m² | - |
| 1777556736 | 14.44° C | 33% | 1029.7 hPa | 0 mm | - | 652 W/m² | - |
| 1777555844 | 14.44° C | 32% | 1029.8 hPa | 0 mm | - | 675 W/m² | - |
| 1777554934 | 14.44° C | 33% | 1029.8 hPa | 0 mm | - | 524 W/m² | - |
| 1777554032 | 14.44° C | 34% | 1030 hPa | 0 mm | - | 726 W/m² | - |
| 1777553131 | 13.89° C | 33% | 1030.1 hPa | 0 mm | - | 749 W/m² | - |
| 1777552230 | 13.33° C | 35% | 1030.1 hPa | 0 mm | - | 770 W/m² | - |
| 1777551333 | 13.33° C | 34% | 1030.3 hPa | 0 mm | - | 782 W/m² | - |
| 1777550438 | 13.33° C | 32% | 1030.5 hPa | 0 mm | - | 754 W/m² | - |
| 1777549527 | 12.78° C | 33% | 1030.6 hPa | 0 mm | - | 805 W/m² | - |
| 1777548684 | 12.78° C | 33% | 1030.7 hPa | 0 mm | - | 810 W/m² | - |
| 1777547721 | 12.78° C | 30% | 1030.5 hPa | 0 mm | - | 745 W/m² | - |
| 1777546819 | 12.22° C | 30% | 1030.5 hPa | 0 mm | - | 814 W/m² | - |
| 1777545917 | 12.22° C | 33% | 1030.6 hPa | 0 mm | - | 812 W/m² | - |
| 1777545014 | 11.67° C | 34% | 1030.7 hPa | 0 mm | - | 803 W/m² | - |
| 1777544110 | 11.67° C | 36% | 1031 hPa | 0 mm | - | 795 W/m² | - |
| 1777543207 | 11.11° C | 38% | 1031.1 hPa | 0 mm | - | 780 W/m² | - |
| 1777542304 | 10.56° C | 40% | 1031.2 hPa | 0 mm | - | 766 W/m² | - |
| 1777541465 | 10.56° C | 41% | 1031.4 hPa | 0 mm | - | 747 W/m² | - |
| 1777540556 | 10° C | 42% | 1031.4 hPa | 0 mm | - | 721 W/m² | - |
| 1777539693 | 9.44° C | 43% | 1031.6 hPa | 0 mm | - | 438 W/m² | - |
| 1777538752 | 9.44° C | 43% | 1031.8 hPa | 0 mm | - | 227 W/m² | - |
| 1777537848 | 8.89° C | 44% | 1031.6 hPa | 0 mm | - | 37 W/m² | - |
* Rain latest hour (hover to see other rain measurements)
** Current wind speed in m/s (hover to see current wind gust speed)